PDA6121 LCLK-UKWW

Flight info

Callsign PDA6121
Flight time 2h 18m
Altitude 36000
Route RUDER M13 BAPAX L620 VESAR UB545 MUT UL621 BUK UM861 RAKUR/K0828F360 M856 DIGAM P156 ODESE M854 ODSAN P156 NIROV
Aircraft A321/M-SDE3FGHIJ4RWY/LB1

Departure

Time 2026-05-05 19:22
Airport Larnaca International Airport (LCLK)

Arrival

Time 2026-05-05 21:40
Airport Vinnytsia/Gavyryshivka International Airport (UKWW)
Time Latitude Longitude Altitude Speed Heading
2026-05-05 19:02 34.86877 33.60955 21 ft 0 kts 45°
2026-05-05 19:12 34.86876 33.60954 20 ft 2 kts 45°
2026-05-05 19:12 34.86857 33.60936 21 ft 4 kts 28°
2026-05-05 19:12 34.86838 33.60923 23 ft 3 kts 30°
2026-05-05 19:12 34.86818 33.60904 25 ft 4 kts 62°
2026-05-05 19:13 34.86814 33.60876 24 ft 4 kts 115°
2026-05-05 19:13 34.86829 33.60852 21 ft 4 kts 135°
2026-05-05 19:13 34.86836 33.60844 21 ft 0 kts 135°
2026-05-05 19:16 34.86833 33.60848 22 ft 4 kts 135°
2026-05-05 19:16 34.86771 33.60923 20 ft 21 kts 135°
2026-05-05 19:16 34.86700 33.61019 21 ft 14 kts 115°
2026-05-05 19:16 34.86718 33.61088 21 ft 14 kts 51°
2026-05-05 19:17 34.86821 33.61215 19 ft 18 kts 45°
2026-05-05 19:17 34.86910 33.61325 18 ft 19 kts 45°
2026-05-05 19:17 34.87004 33.61440 16 ft 20 kts 45°
2026-05-05 19:17 34.87103 33.61560 18 ft 20 kts 45°
2026-05-05 19:18 34.87167 33.61638 19 ft 20 kts 45°
2026-05-05 19:18 34.87268 33.61761 18 ft 21 kts 44°
2026-05-05 19:18 34.87373 33.61888 18 ft 22 kts 45°
2026-05-05 19:18 34.87485 33.62025 16 ft 23 kts 44°
2026-05-05 19:19 34.87503 33.62151 18 ft 13 kts 111°
2026-05-05 19:19 34.87544 33.62240 17 ft 14 kts 45°
2026-05-05 19:19 34.87656 33.62376 18 ft 23 kts 45°
2026-05-05 19:19 34.87742 33.62481 18 ft 30 kts 44°
2026-05-05 19:20 34.87884 33.62655 21 ft 28 kts 45°
2026-05-05 19:20 34.88024 33.62826 20 ft 29 kts 45°
2026-05-05 19:20 34.88166 33.62998 18 ft 29 kts 45°
2026-05-05 19:20 34.88311 33.63175 18 ft 29 kts 45°
2026-05-05 19:21 34.88436 33.63329 17 ft 19 kts 52°
2026-05-05 19:21 34.88373 33.63471 19 ft 16 kts 135°
2026-05-05 19:21 34.88308 33.63509 17 ft 16 kts 191°
2026-05-05 19:21 34.88215 33.63416 16 ft 18 kts 225°
2026-05-05 19:22 34.88034 33.63192 18 ft 71 kts 225°
2026-05-05 19:22 34.87524 33.62576 18 ft 136 kts 225°
2026-05-05 19:22 34.86741 33.61633 228 ft 166 kts 225°
2026-05-05 19:22 34.85945 33.60674 1074 ft 157 kts 227°
2026-05-05 19:23 34.85142 33.59682 1510 ft 174 kts 227°
2026-05-05 19:23 34.84239 33.58569 1735 ft 195 kts 228°
2026-05-05 19:23 34.83229 33.57324 1894 ft 220 kts 227°
2026-05-05 19:23 34.82043 33.55984 2176 ft 246 kts 214°
2026-05-05 19:24 34.80381 33.55443 2698 ft 261 kts 175°
2026-05-05 19:24 34.78686 33.56210 3442 ft 265 kts 144°
2026-05-05 19:24 34.77286 33.57680 4239 ft 268 kts 134°
2026-05-05 19:24 34.76007 33.59331 5072 ft 269 kts 132°
2026-05-05 19:25 34.74714 33.61006 5821 ft 274 kts 134°
2026-05-05 19:25 34.73352 33.62660 6515 ft 280 kts 136°
2026-05-05 19:25 34.71915 33.64279 7243 ft 283 kts 138°
2026-05-05 19:25 34.70424 33.65868 7976 ft 287 kts 139°
2026-05-05 19:26 34.68887 33.67449 8697 ft 291 kts 140°
2026-05-05 19:26 34.67338 33.69012 9406 ft 296 kts 141°
2026-05-05 19:26 34.65737 33.70615 10055 ft 302 kts 139°
2026-05-05 19:26 34.64363 33.72561 10632 ft 307 kts 119°
2026-05-05 19:27 34.63623 33.74989 11289 ft 309 kts 98°
2026-05-05 19:27 34.63620 33.77655 11498 ft 327 kts 77°
2026-05-05 19:27 34.64386 33.80337 11638 ft 347 kts 65°
2026-05-05 19:27 34.65329 33.83126 11761 ft 367 kts 66°
2026-05-05 19:28 34.66316 33.86064 12018 ft 382 kts 66°
2026-05-05 19:28 34.67319 33.89084 12555 ft 389 kts 66°
2026-05-05 19:28 34.68315 33.92107 13229 ft 391 kts 66°
2026-05-05 19:28 34.69324 33.95194 13850 ft 396 kts 66°
2026-05-05 19:29 34.70339 33.98318 14391 ft 400 kts 66°
2026-05-05 19:29 34.71370 34.01483 14927 ft 405 kts 66°
2026-05-05 19:29 34.72687 34.04513 15429 ft 407 kts 53°
2026-05-05 19:29 34.74523 34.07132 15943 ft 408 kts 40°
2026-05-05 19:30 34.76782 34.09197 16479 ft 407 kts 27°
2026-05-05 19:30 34.79351 34.10623 17020 ft 406 kts 14°
2026-05-05 19:30 34.82060 34.11336 17576 ft 404 kts
2026-05-05 19:30 34.84861 34.11583 18164 ft 405 kts 359°
2026-05-05 19:31 34.87682 34.11819 18664 ft 408 kts 359°
2026-05-05 19:31 34.90525 34.12062 19142 ft 411 kts 359°
2026-05-05 19:31 34.93388 34.12310 19617 ft 413 kts 359°
2026-05-05 19:31 34.96264 34.12560 20078 ft 416 kts 359°
2026-05-05 19:32 34.99159 34.12782 20551 ft 418 kts 358°
2026-05-05 19:32 35.02069 34.12975 21012 ft 420 kts 358°
2026-05-05 19:32 35.04992 34.13151 21508 ft 421 kts 358°
2026-05-05 19:32 35.07887 34.13319 21976 ft 423 kts 358°
2026-05-05 19:33 35.10840 34.13493 22424 ft 426 kts 358°
2026-05-05 19:33 35.13806 34.13679 22860 ft 428 kts 358°
2026-05-05 19:33 35.16786 34.13875 23283 ft 431 kts 358°
2026-05-05 19:33 35.19784 34.14075 23689 ft 433 kts 358°
2026-05-05 19:34 35.22809 34.14279 24035 ft 436 kts 358°
2026-05-05 19:34 35.25837 34.14483 24390 ft 438 kts 358°
2026-05-05 19:34 35.28891 34.14687 24719 ft 440 kts 357°
2026-05-05 19:35 35.35000 34.15084 25372 ft 445 kts 357°
2026-05-05 19:35 35.38103 34.15282 25695 ft 448 kts 357°
2026-05-05 19:35 35.41226 34.15481 26019 ft 450 kts 357°
2026-05-05 19:35 35.44358 34.15682 26335 ft 453 kts 357°
2026-05-05 19:36 35.47516 34.15889 26664 ft 455 kts 357°
2026-05-05 19:36 35.50687 34.16104 26986 ft 458 kts 357°
2026-05-05 19:36 35.53881 34.16324 27306 ft 460 kts 357°
2026-05-05 19:36 35.57081 34.16540 27672 ft 461 kts 357°
2026-05-05 19:37 35.60232 34.16752 28113 ft 460 kts 357°
2026-05-05 19:37 35.63429 34.16966 28554 ft 459 kts 356°
2026-05-05 19:37 35.66605 34.16964 29011 ft 452 kts 349°
2026-05-05 19:37 35.69674 34.16385 29452 ft 444 kts 340°
2026-05-05 19:38 35.72592 34.15253 29881 ft 436 kts 332°
2026-05-05 19:38 35.75294 34.13633 30272 ft 429 kts 324°
2026-05-05 19:38 35.77843 34.11744 30636 ft 427 kts 323°
2026-05-05 19:38 35.80388 34.09859 31002 ft 427 kts 324°
2026-05-05 19:39 35.82932 34.07979 31371 ft 426 kts 324°
2026-05-05 19:39 35.85439 34.06128 31728 ft 425 kts 324°
2026-05-05 19:39 35.87967 34.04261 32092 ft 424 kts 324°
2026-05-05 19:39 35.90497 34.02389 32476 ft 423 kts 324°
2026-05-05 19:40 35.93016 34.00520 32834 ft 422 kts 324°
2026-05-05 19:40 35.95522 33.98642 33178 ft 421 kts 324°
2026-05-05 19:40 35.98022 33.96753 33518 ft 421 kts 324°
2026-05-05 19:40 36.00515 33.94863 33855 ft 420 kts 324°
2026-05-05 19:41 36.03008 33.92974 34153 ft 420 kts 324°
2026-05-05 19:41 36.05494 33.91093 34407 ft 420 kts 324°
2026-05-05 19:41 36.07954 33.89230 34639 ft 420 kts 324°
2026-05-05 19:41 36.10450 33.87339 34873 ft 421 kts 324°
2026-05-05 19:42 36.12944 33.85449 35107 ft 421 kts 324°
2026-05-05 19:42 36.15443 33.83556 35341 ft 422 kts 324°
2026-05-05 19:42 36.17947 33.81658 35587 ft 422 kts 324°
2026-05-05 19:42 36.20457 33.79752 35804 ft 423 kts 324°
2026-05-05 19:43 36.22969 33.77835 35970 ft 424 kts 324°
2026-05-05 19:43 36.28011 33.73987 36010 ft 427 kts 324°
2026-05-05 19:44 36.33039 33.70160 36010 ft 427 kts 324°
2026-05-05 19:44 36.38099 33.66307 36015 ft 426 kts 324°
2026-05-05 19:45 36.43141 33.62450 36022 ft 425 kts 324°
2026-05-05 19:45 36.48180 33.58584 36043 ft 426 kts 324°
2026-05-05 19:46 36.53237 33.54708 36043 ft 427 kts 324°
2026-05-05 19:46 36.58254 33.50856 36044 ft 427 kts 324°
2026-05-05 19:47 36.63311 33.46958 36055 ft 428 kts 324°
2026-05-05 19:47 36.68374 33.43054 36058 ft 428 kts 324°
2026-05-05 19:48 36.73427 33.39149 36081 ft 428 kts 325°
2026-05-05 19:48 36.78454 33.35256 36077 ft 428 kts 324°
2026-05-05 19:49 36.83537 33.31385 36077 ft 430 kts 329°
2026-05-05 19:49 36.89270 33.29110 36075 ft 440 kts 348°
2026-05-05 19:50 36.95415 33.28693 36080 ft 443 kts 353°
2026-05-05 19:50 37.01546 33.28372 36097 ft 444 kts 353°
2026-05-05 19:51 37.07712 33.28044 36092 ft 443 kts 353°
2026-05-05 19:51 37.13877 33.27714 36089 ft 443 kts 353°
2026-05-05 19:52 37.20035 33.27382 36101 ft 443 kts 353°
2026-05-05 19:52 37.26156 33.27052 36094 ft 443 kts 353°
2026-05-05 19:53 37.32307 33.26718 36092 ft 443 kts 353°
2026-05-05 19:53 37.38461 33.26384 36098 ft 442 kts 353°
2026-05-05 19:54 37.44609 33.26050 36076 ft 442 kts 353°
2026-05-05 19:54 37.50747 33.25726 36083 ft 442 kts 353°
2026-05-05 19:55 37.56850 33.25404 36085 ft 442 kts 353°
2026-05-05 19:55 37.62983 33.25070 36090 ft 441 kts 353°
2026-05-05 19:56 37.69120 33.24727 36083 ft 441 kts 353°
2026-05-05 19:56 37.75246 33.24389 36083 ft 441 kts 353°
2026-05-05 19:57 37.81328 33.24061 36082 ft 441 kts 353°
2026-05-05 19:57 37.87455 33.23729 36083 ft 441 kts 353°
2026-05-05 19:58 37.93580 33.23397 36082 ft 441 kts 353°
2026-05-05 19:58 37.99712 33.23069 36091 ft 441 kts 353°
2026-05-05 19:59 38.05842 33.22731 36087 ft 440 kts 353°
2026-05-05 19:59 38.11909 33.22396 36086 ft 440 kts 353°
2026-05-05 20:00 38.18033 33.22058 36083 ft 440 kts 354°
2026-05-05 20:00 38.24145 33.21729 36093 ft 440 kts 354°
2026-05-05 20:01 38.30254 33.21396 36086 ft 439 kts 354°
2026-05-05 20:01 38.36318 33.21065 36082 ft 439 kts 354°
2026-05-05 20:02 38.42419 33.20732 36084 ft 439 kts 354°
2026-05-05 20:02 38.48517 33.20393 36074 ft 438 kts 354°
2026-05-05 20:03 38.54602 33.20052 36069 ft 438 kts 354°
2026-05-05 20:03 38.60646 33.19723 36076 ft 438 kts 354°
2026-05-05 20:04 38.66741 33.19393 36067 ft 438 kts 354°
2026-05-05 20:04 38.72822 33.19055 36060 ft 438 kts 354°
2026-05-05 20:05 38.78902 33.18713 36075 ft 437 kts 354°
2026-05-05 20:05 38.84946 33.18380 36065 ft 437 kts 354°
2026-05-05 20:06 38.91026 33.18044 36059 ft 437 kts 354°
2026-05-05 20:06 38.97093 33.17700 36057 ft 437 kts 354°
2026-05-05 20:07 39.03171 33.17365 36063 ft 437 kts 354°
2026-05-05 20:07 39.09236 33.17024 36060 ft 437 kts 354°
2026-05-05 20:08 39.15264 33.16688 36058 ft 436 kts 354°
2026-05-05 20:08 39.21323 33.16351 36062 ft 436 kts 354°
2026-05-05 20:09 39.27385 33.16005 36058 ft 436 kts 354°
2026-05-05 20:09 39.33436 33.15661 36055 ft 435 kts 355°
2026-05-05 20:10 39.39448 33.15331 36068 ft 435 kts 355°
2026-05-05 20:10 39.45500 33.14991 36062 ft 435 kts 355°
2026-05-05 20:11 39.51542 33.14646 36060 ft 435 kts 355°
2026-05-05 20:11 39.57576 33.14301 36069 ft 435 kts 355°
2026-05-05 20:12 39.63619 33.13953 36065 ft 434 kts 355°
2026-05-05 20:12 39.69656 33.13603 36060 ft 434 kts 355°
2026-05-05 20:13 39.75645 33.13263 36055 ft 434 kts 355°
2026-05-05 20:13 39.81683 33.12927 36052 ft 434 kts 355°
2026-05-05 20:14 39.87718 33.12583 36054 ft 434 kts 355°
2026-05-05 20:14 39.93740 33.12236 36054 ft 434 kts 355°
2026-05-05 20:15 39.99732 33.11884 36056 ft 434 kts 355°
2026-05-05 20:15 40.05764 33.11543 36057 ft 434 kts 355°
2026-05-05 20:16 40.11798 33.11203 36052 ft 434 kts 355°
2026-05-05 20:16 40.17828 33.10857 36066 ft 434 kts 355°
2026-05-05 20:17 40.23803 33.10341 36047 ft 432 kts 348°
2026-05-05 20:17 40.29536 33.08154 36053 ft 430 kts 340°
2026-05-05 20:18 40.35217 33.05665 36069 ft 430 kts 341°
2026-05-05 20:18 40.40900 33.03197 36069 ft 430 kts 341°
2026-05-05 20:19 40.46582 33.00730 36060 ft 430 kts 341°
2026-05-05 20:19 40.52225 32.98257 36066 ft 430 kts 340°
2026-05-05 20:20 40.57903 32.95758 36087 ft 430 kts 341°
2026-05-05 20:20 40.63590 32.93265 36079 ft 430 kts 341°
2026-05-05 20:21 40.69272 32.90778 36063 ft 431 kts 341°
2026-05-05 20:21 40.74959 32.88271 36065 ft 431 kts 341°
2026-05-05 20:22 40.80650 32.85760 36097 ft 431 kts 341°
2026-05-05 20:22 40.86306 32.83258 36088 ft 431 kts 341°
2026-05-05 20:23 40.91997 32.80732 36081 ft 431 kts 341°
2026-05-05 20:23 40.97676 32.78203 36083 ft 432 kts 341°
2026-05-05 20:24 41.03374 32.75671 36098 ft 432 kts 341°
2026-05-05 20:24 41.09033 32.73152 36096 ft 432 kts 341°
2026-05-05 20:25 41.14724 32.70604 36088 ft 432 kts 341°
2026-05-05 20:25 41.20420 32.68062 36093 ft 432 kts 341°
2026-05-05 20:26 41.26110 32.65513 36103 ft 432 kts 341°
2026-05-05 20:26 41.31802 32.62962 36104 ft 432 kts 341°
2026-05-05 20:27 41.37468 32.60417 36094 ft 432 kts 342°
2026-05-05 20:27 41.43160 32.57846 36095 ft 432 kts 341°
2026-05-05 20:28 41.48860 32.55267 36116 ft 432 kts 342°
2026-05-05 20:28 41.54523 32.52711 36105 ft 432 kts 342°
2026-05-05 20:29 41.60222 32.50139 36089 ft 433 kts 342°
2026-05-05 20:29 41.65920 32.47559 36089 ft 433 kts 342°
2026-05-05 20:30 41.71585 32.44975 36103 ft 433 kts 342°
2026-05-05 20:30 41.77280 32.42374 36103 ft 433 kts 342°
2026-05-05 20:31 41.82780 32.39863 36086 ft 433 kts 342°
2026-05-05 20:31 41.88330 32.37321 36090 ft 433 kts 342°
2026-05-05 20:32 41.94002 32.34726 36094 ft 433 kts 342°
2026-05-05 20:32 41.99669 32.32128 36092 ft 433 kts 342°
2026-05-05 20:33 42.05369 32.29508 36090 ft 433 kts 342°
2026-05-05 20:33 42.11073 32.26883 36091 ft 433 kts 342°
2026-05-05 20:34 42.16772 32.24252 36094 ft 433 kts 342°
2026-05-05 20:34 42.22472 32.21609 36096 ft 433 kts 342°
2026-05-05 20:35 42.28122 32.18991 36079 ft 433 kts 342°
2026-05-05 20:35 42.33818 32.16344 36083 ft 433 kts 342°
2026-05-05 20:36 42.39521 32.13691 36086 ft 433 kts 342°
2026-05-05 20:36 42.45219 32.11041 36096 ft 433 kts 342°
2026-05-05 20:37 42.50880 32.08401 36077 ft 433 kts 342°
2026-05-05 20:37 42.56581 32.05734 36084 ft 433 kts 342°
2026-05-05 20:38 42.62281 32.03062 36083 ft 433 kts 342°
2026-05-05 20:38 42.67973 32.00396 36094 ft 433 kts 342°
2026-05-05 20:39 42.73640 31.97729 36071 ft 434 kts 342°
2026-05-05 20:39 42.79341 31.95041 36080 ft 433 kts 344°
2026-05-05 20:40 42.85180 31.93077 36089 ft 432 kts 348°
2026-05-05 20:40 42.91036 31.91194 36092 ft 433 kts 348°
2026-05-05 20:41 42.96901 31.89285 36090 ft 433 kts 348°
2026-05-05 20:41 43.02718 31.87394 36076 ft 433 kts 348°
2026-05-05 20:42 43.08574 31.85503 36085 ft 433 kts 348°
2026-05-05 20:42 43.14440 31.83598 36088 ft 433 kts 348°
2026-05-05 20:43 43.20299 31.81682 36092 ft 433 kts 348°
2026-05-05 20:43 43.26126 31.79774 36074 ft 433 kts 348°
2026-05-05 20:44 43.31994 31.77857 36081 ft 433 kts 348°
2026-05-05 20:44 43.37861 31.75943 36090 ft 433 kts 348°
2026-05-05 20:45 43.46662 31.73064 36089 ft 434 kts 348°
2026-05-05 20:45 43.52530 31.71109 36092 ft 434 kts 348°
2026-05-05 20:46 43.58350 31.69123 36084 ft 434 kts 348°
2026-05-05 20:46 43.64208 31.67131 36089 ft 434 kts 348°
2026-05-05 20:47 43.70074 31.65158 36088 ft 434 kts 348°
2026-05-05 20:47 43.75945 31.63179 36093 ft 434 kts 348°
2026-05-05 20:48 43.81813 31.61186 36079 ft 434 kts 348°
2026-05-05 20:48 43.87637 31.59203 36087 ft 434 kts 348°
2026-05-05 20:49 43.93495 31.57220 36094 ft 434 kts 348°
2026-05-05 20:49 43.99357 31.55226 36094 ft 434 kts 348°
2026-05-05 20:50 44.05216 31.53215 36095 ft 434 kts 348°
2026-05-05 20:50 44.11039 31.51210 36087 ft 434 kts 348°
2026-05-05 20:51 44.16895 31.49197 36091 ft 434 kts 348°
2026-05-05 20:51 44.22752 31.47178 36094 ft 434 kts 348°
2026-05-05 20:52 44.28609 31.45156 36092 ft 434 kts 348°
2026-05-05 20:52 44.34429 31.43148 36092 ft 434 kts 348°
2026-05-05 20:53 44.40292 31.41130 36076 ft 434 kts 348°
2026-05-05 20:53 44.46159 31.39101 36085 ft 435 kts 348°
2026-05-05 20:54 44.52036 31.37070 36085 ft 435 kts 348°
2026-05-05 20:54 44.57915 31.35041 36095 ft 435 kts 348°
2026-05-05 20:55 44.63747 31.33015 36092 ft 435 kts 348°
2026-05-05 20:55 44.69625 31.30955 36093 ft 435 kts 348°
2026-05-05 20:56 44.75505 31.28904 36093 ft 435 kts 348°
2026-05-05 20:56 44.81379 31.26855 36091 ft 435 kts 348°
2026-05-05 20:57 44.87219 31.24811 36096 ft 435 kts 348°
2026-05-05 20:57 44.93097 31.22742 36080 ft 435 kts 348°
2026-05-05 20:58 44.98976 31.20662 36083 ft 436 kts 348°
2026-05-05 20:58 45.04871 31.18591 36089 ft 437 kts 348°
2026-05-05 20:59 45.10765 31.16523 36091 ft 437 kts 348°
2026-05-05 20:59 45.16628 31.14447 36092 ft 437 kts 348°
2026-05-05 21:00 45.22526 31.12341 36073 ft 437 kts 348°
2026-05-05 21:00 45.28436 31.10230 36087 ft 438 kts 347°
2026-05-05 21:01 45.34347 31.08059 36091 ft 439 kts 347°
2026-05-05 21:01 45.40217 31.05872 36089 ft 439 kts 347°
2026-05-05 21:02 45.46129 31.03679 36090 ft 439 kts 347°
2026-05-05 21:02 45.52053 31.01491 36083 ft 440 kts 347°
2026-05-05 21:03 45.57977 30.99293 36083 ft 440 kts 347°
2026-05-05 21:03 45.63876 30.97102 36088 ft 441 kts 347°
2026-05-05 21:04 45.69815 30.94893 36090 ft 441 kts 347°
2026-05-05 21:04 45.75761 30.92677 36092 ft 442 kts 347°
2026-05-05 21:05 45.81707 30.90450 36084 ft 442 kts 347°
2026-05-05 21:05 45.87670 30.88221 36081 ft 443 kts 347°
2026-05-05 21:06 45.93592 30.85991 36084 ft 443 kts 347°
2026-05-05 21:06 45.99556 30.83687 36085 ft 444 kts 346°
2026-05-05 21:07 46.05524 30.81370 36088 ft 444 kts 346°
2026-05-05 21:07 46.11494 30.79071 36071 ft 445 kts 346°
2026-05-05 21:08 46.17479 30.76761 36075 ft 445 kts 346°
2026-05-05 21:08 46.23430 30.74461 36076 ft 446 kts 346°
2026-05-05 21:09 46.29424 30.72133 36081 ft 446 kts 346°
2026-05-05 21:09 46.35418 30.69793 36079 ft 447 kts 346°
2026-05-05 21:10 46.41418 30.67441 36074 ft 447 kts 346°
2026-05-05 21:10 46.47417 30.65260 36072 ft 447 kts 348°
2026-05-05 21:11 46.53507 30.63365 36072 ft 448 kts 349°
2026-05-05 21:11 46.59608 30.61501 36073 ft 448 kts 348°
2026-05-05 21:12 46.65703 30.59548 36069 ft 448 kts 348°
2026-05-05 21:12 46.71744 30.57559 36063 ft 449 kts 348°
2026-05-05 21:13 46.77841 30.55557 36062 ft 449 kts 348°
2026-05-05 21:13 46.83949 30.53571 36060 ft 450 kts 348°
2026-05-05 21:14 46.90063 30.51579 36062 ft 450 kts 348°
2026-05-05 21:14 46.96179 30.49572 36060 ft 450 kts 348°
2026-05-05 21:15 47.02248 30.47567 36062 ft 451 kts 348°
2026-05-05 21:15 47.08371 30.45546 36060 ft 451 kts 348°
2026-05-05 21:16 47.14479 30.43448 36054 ft 451 kts 343°
2026-05-05 21:16 47.20168 30.39589 36052 ft 452 kts 332°
2026-05-05 21:17 47.25651 30.35159 36053 ft 452 kts 332°
2026-05-05 21:17 47.31170 30.30704 36047 ft 453 kts 332°
2026-05-05 21:18 47.36692 30.26232 36049 ft 453 kts 332°
2026-05-05 21:18 47.42215 30.21747 36051 ft 453 kts 332°
2026-05-05 21:19 47.47741 30.17246 36046 ft 454 kts 332°
2026-05-05 21:19 47.53232 30.12771 36043 ft 454 kts 332°
2026-05-05 21:20 47.58769 30.08248 36046 ft 454 kts 332°
2026-05-05 21:20 47.64295 30.03719 36048 ft 454 kts 332°
2026-05-05 21:21 47.69823 29.99172 36046 ft 454 kts 332°
2026-05-05 21:21 47.75317 29.94653 36043 ft 454 kts 332°
2026-05-05 21:22 47.80840 29.90089 36041 ft 454 kts 332°
2026-05-05 21:22 47.86355 29.85514 36038 ft 453 kts 332°
2026-05-05 21:23 47.89106 29.83235 35728 ft 454 kts 332°
2026-05-05 21:23 47.91890 29.80930 34887 ft 459 kts 332°
2026-05-05 21:23 47.94673 29.78621 34139 ft 461 kts 332°
2026-05-05 21:23 47.97487 29.76280 33208 ft 464 kts 332°
2026-05-05 21:24 48.00262 29.73964 32396 ft 464 kts 332°
2026-05-05 21:24 48.03082 29.71606 31491 ft 465 kts 332°
2026-05-05 21:24 48.05904 29.69244 30608 ft 466 kts 332°
2026-05-05 21:24 48.08721 29.66833 29704 ft 466 kts 331°
2026-05-05 21:25 48.11518 29.64335 28498 ft 470 kts 330°
2026-05-05 21:25 48.14306 29.61770 27519 ft 470 kts 330°
2026-05-05 21:25 48.17082 29.59180 26413 ft 472 kts 330°
2026-05-05 21:25 48.19886 29.56559 25229 ft 476 kts 330°
2026-05-05 21:26 48.22713 29.53932 24106 ft 479 kts 330°
2026-05-05 21:26 48.25550 29.51310 23048 ft 479 kts 330°
2026-05-05 21:26 48.28329 29.48745 22312 ft 471 kts 330°
2026-05-05 21:26 48.31118 29.46180 21447 ft 466 kts 330°
2026-05-05 21:27 48.33867 29.43655 20491 ft 462 kts 330°
2026-05-05 21:27 48.36583 29.41157 19764 ft 454 kts 330°
2026-05-05 21:27 48.39271 29.38680 18962 ft 450 kts 330°
2026-05-05 21:27 48.41914 29.36237 18262 ft 443 kts 330°
2026-05-05 21:28 48.44524 29.33823 17364 ft 438 kts 330°
2026-05-05 21:28 48.47112 29.31431 16525 ft 433 kts 330°
2026-05-05 21:28 48.49665 29.29068 15713 ft 428 kts 330°
2026-05-05 21:28 48.52145 29.26764 14964 ft 422 kts 330°
2026-05-05 21:29 48.54610 29.24465 13974 ft 411 kts 330°
2026-05-05 21:29 48.56995 29.22235 13240 ft 395 kts 330°
2026-05-05 21:29 48.59313 29.20065 12587 ft 390 kts 330°
2026-05-05 21:29 48.61607 29.17919 11950 ft 385 kts 330°
2026-05-05 21:30 48.63868 29.15801 11334 ft 380 kts 330°
2026-05-05 21:30 48.66076 29.13735 11108 ft 364 kts 330°
2026-05-05 21:30 48.68154 29.11789 10992 ft 347 kts 330°
2026-05-05 21:30 48.70158 29.09911 10853 ft 331 kts 330°
2026-05-05 21:31 48.72071 29.08119 10742 ft 317 kts 330°
2026-05-05 21:31 48.73911 29.06389 10614 ft 304 kts 330°
2026-05-05 21:31 48.75675 29.04731 10465 ft 294 kts 329°
2026-05-05 21:31 48.77396 29.03111 10213 ft 289 kts 329°
2026-05-05 21:32 48.79090 29.01515 9975 ft 286 kts 329°
2026-05-05 21:32 48.80774 28.99929 9834 ft 285 kts 329°
2026-05-05 21:32 48.82459 28.98340 9706 ft 285 kts 329°
2026-05-05 21:32 48.84116 28.96772 9575 ft 284 kts 329°
2026-05-05 21:33 48.85797 28.95181 9165 ft 286 kts 329°
2026-05-05 21:33 48.87491 28.93580 8767 ft 285 kts 329°
2026-05-05 21:33 48.89175 28.91991 8305 ft 286 kts 329°
2026-05-05 21:33 48.90850 28.90406 8011 ft 282 kts 329°
2026-05-05 21:34 48.92508 28.88832 7631 ft 280 kts 328°
2026-05-05 21:34 48.94158 28.87266 7266 ft 279 kts 328°
2026-05-05 21:34 48.95798 28.85712 6908 ft 277 kts 328°
2026-05-05 21:34 48.97504 28.84456 6550 ft 276 kts 341°
2026-05-05 21:35 48.99321 28.83531 6162 ft 275 kts 341°
2026-05-05 21:35 49.01134 28.82611 5782 ft 274 kts 341°
2026-05-05 21:35 49.02936 28.81693 5410 ft 273 kts 341°
2026-05-05 21:35 49.04737 28.80772 4873 ft 278 kts 341°
2026-05-05 21:36 49.06596 28.79817 4186 ft 282 kts 340°
2026-05-05 21:36 49.08406 28.78886 3936 ft 266 kts 339°
2026-05-05 21:36 49.10097 28.78021 3801 ft 247 kts 339°
2026-05-05 21:36 49.11659 28.77223 3712 ft 226 kts 339°
2026-05-05 21:37 49.12615 28.76733 3656 ft 211 kts 338°
2026-05-05 21:37 49.14092 28.75227 3379 ft 182 kts 315°
2026-05-05 21:37 49.15034 28.73938 3157 ft 182 kts 315°
2026-05-05 21:37 49.15980 28.72648 2911 ft 182 kts 314°
2026-05-05 21:38 49.16926 28.71361 2676 ft 181 kts 314°
2026-05-05 21:38 49.17830 28.70135 2448 ft 167 kts 313°
2026-05-05 21:38 49.18667 28.68997 2231 ft 156 kts 312°
2026-05-05 21:38 49.19195 28.68279 2121 ft 148 kts 311°
2026-05-05 21:39 49.19943 28.67261 1920 ft 141 kts 311°
2026-05-05 21:39 49.20906 28.65946 1675 ft 141 kts 312°
2026-05-05 21:39 49.21635 28.64946 1499 ft 141 kts 312°
2026-05-05 21:39 49.22372 28.63943 1290 ft 142 kts 315°
2026-05-05 21:40 49.23118 28.62938 1107 ft 143 kts 316°
2026-05-05 21:40 49.23853 28.61932 980 ft 133 kts 317°
2026-05-05 21:40 49.24241 28.61395 981 ft 87 kts 319°
2026-05-05 21:40 49.24471 28.61084 975 ft 18 kts 315°
2026-05-05 21:41 49.24463 28.61000 971 ft 7 kts 222°
2026-05-05 21:41 49.24400 28.60890 983 ft 12 kts 229°
2026-05-05 21:41 49.24363 28.60828 978 ft 12 kts 227°
2026-05-05 21:41 49.24296 28.60716 980 ft 9 kts 227°
2026-05-05 21:42 49.24279 28.60686 983 ft 2 kts 230°
2026-05-05 21:42 49.24271 28.60657 982 ft 3 kts 269°
2026-05-05 21:42 49.24287 28.60621 980 ft 5 kts 315°
2026-05-05 21:42 49.24291 28.60614 977 ft 0 kts 316°